Big Piney, WY

3:43 AM MDT on April 21, 2018 (GMT -0600)
Big Piney-Marbleton

Weather History for KBPI - October, 2011

Change the Weather History Date:

Thursday, October 20, 2011

  Actual Average Record
Temperature  
Mean Temperature 44 °F 37 °F  
Max Temperature 62 °F 54 °F 72 °F (2003)
Min Temperature 27 °F 20 °F 3 °F (1976)
Degree Days  
Heating Degree Days 20 28  
Month to date heating degree days 491  
Since 1 July heating degree days 1242  
Cooling Degree Days 0 0  
Month to date cooling degree days 0  
Year to date cooling degree days 35  
Moisture  
Dew Point 23 °F    
Average Humidity 55    
Maximum Humidity 81    
Minimum Humidity 18    
Precipitation  
Precipitation 0.00 in 0.02 in 0.98 in (2004)
Month to date precipitation 0.41  
Year to date precipitation 5.85  
Sea Level Pressure  
Sea Level Pressure 30.08 in    
Wind  
Wind Speed 6 mph (NW)    
Max Wind Speed 13 mph    
Max Gust Speed 20 mph    
Visibility 10 miles    
Events      
T = Trace of Precipitation, MM = Missing Value Source: NWS Daily Summary

Daily Weather History Graph

Daily Weather History Graph

Search for Another Location

Airport or City:

Astronomy

Oct. 20, 2011 Rise Set
Actual Time 7:39 AM MDT 6:30 PM MDT
Civil Twilight 7:10 AM MDT 6:59 PM MDT
Nautical Twilight 6:37 AM MDT 7:31 PM MDT
Astronomical Twilight 6:05 AM MDT 8:04 PM MDT
Moon 12:18 AM MDT (10/20) 2:49 PM MDT (10/20)
Length of Visible Light 11h 48m
Length of Day
10h 51m
Last Quarter, 43% of the Moon is Illuminated
Oct 20
Last Quarter
Oct 26
New
Nov 2
First Quarter
Nov 10
Full
Nov 18
Last Quarter

Hourly Weather History & Observations

Time (MDT) Temp. Windchill Dew Point Humidity Pressure Visibility Wind Dir Wind Speed Gust Speed Precip Events Conditions
12:53 AM 36.0 °F 28.0 °F 24.1 °F 62% 29.99 in 10.0 mi NNW 11.5 mph - N/A   Clear
1:53 AM 32.0 °F - 24.1 °F 73% 30.01 in 10.0 mi Calm Calm - N/A   Clear
2:53 AM 33.1 °F 30.0 °F 25.0 °F 72% 30.01 in 10.0 mi NNW 3.5 mph - N/A   Clear
3:53 AM 35.1 °F 31.0 °F 26.1 °F 70% 29.99 in 10.0 mi East 4.6 mph - N/A   Clear
4:53 AM 28.0 °F 20.8 °F 23.0 °F 81% 30.02 in 10.0 mi West 6.9 mph - N/A   Clear
5:53 AM 30.0 °F 24.1 °F 24.1 °F 79% 30.04 in 10.0 mi NW 5.8 mph - N/A   Clear
6:53 AM 27.0 °F 23.0 °F 21.9 °F 81% 30.13 in 10.0 mi SSW 3.5 mph - N/A   Clear
7:53 AM 28.0 °F 24.2 °F 21.9 °F 78% 30.14 in 10.0 mi WSW 3.5 mph - N/A   Clear
8:53 AM 39.0 °F 35.7 °F 28.0 °F 65% 30.09 in 10.0 mi NNE 4.6 mph - N/A   Clear
9:53 AM 37.4 °F 32.8 °F 28.4 °F 70% 30.21 in 10.0 mi South 5.8 mph - N/A   Clear
10:53 AM 46.0 °F 44.8 °F 26.1 °F 46% 30.08 in 10.0 mi Variable 3.5 mph - N/A   Clear
11:53 AM 53.1 °F - 24.1 °F 32% 30.06 in 10.0 mi SSE 5.8 mph - N/A   Clear
12:53 PM 54.0 °F - 21.9 °F 29% 30.06 in 10.0 mi Calm Calm - N/A   Clear
1:53 PM 57.9 °F - 21.9 °F 25% 30.03 in 10.0 mi WSW 5.8 mph - N/A   Clear
2:53 PM 59.0 °F - 19.0 °F 21% 30.01 in 10.0 mi Variable 4.6 mph - N/A   Clear
3:53 PM 62.1 °F - 17.1 °F 18% 29.98 in 10.0 mi NNW 9.2 mph 19.6 mph N/A   Clear
4:53 PM 60.1 °F - 18.0 °F 20% 30.04 in 10.0 mi NW 11.5 mph - N/A   Clear
5:53 PM 55.0 °F - 21.0 °F 27% 30.06 in 10.0 mi NNW 12.7 mph - N/A   Clear
6:53 PM 46.9 °F - 21.9 °F 37% 30.14 in 10.0 mi North 11.5 mph - N/A   Clear
7:53 PM 43.0 °F 36.4 °F 25.0 °F 49% 30.16 in 10.0 mi NNW 12.7 mph - N/A   Clear
8:53 PM 37.0 °F 31.6 °F 26.1 °F 65% 30.15 in 10.0 mi NNW 6.9 mph - N/A   Clear
9:53 PM 36.0 °F 30.3 °F 25.0 °F 64% 30.18 in 10.0 mi North 6.9 mph - N/A   Clear
10:53 PM 30.9 °F 24.3 °F 25.0 °F 79% 30.17 in 10.0 mi NNW 6.9 mph - N/A   Clear
11:53 PM 33.1 °F 26.9 °F 25.0 °F 72% 30.13 in 10.0 mi NNW 6.9 mph - N/A   Clear